QPF
0.00 0.01 0.01 0.00 0.00 0.00 0.00 0.00 0.00 0.00 0.00 0.00 0.00 0.01 0.00 0.00 0.00 0.00 0.00 0.00 0.00 0.00
0.00 0.02 0.02 0.01 0.00 0.00 0.00 0.00 0.00 0.00 0.00 0.00 0.00 0.01 0.00 0.00 0.00 0.00 0.00 0.00 0.00 0.00
0.01 0.03 0.02 0.02 0.00 0.00 0.00 0.00 0.00 0.00 0.00 0.00 0.00 0.00 0.00 0.00 0.00 0.00 0.00 0.00 0.00 0.00
0.02 0.02 0.06 0.05 0.00 0.00 0.00 0.00 0.00 0.00 0.00 0.00 0.00 0.00 0.00 0.00 0.00 0.00 0.00 0.00 0.00 0.00
0.16 0.07 0.15 0.11 0.03 0.01 0.00 0.00 0.00 0.00 0.00 0.01 0.00 0.00 0.00 0.00 0.00 0.00 0.00 0.00 0.00 0.00
0.42 0.22 0.22 0.06 0.03 0.01 0.00 0.00 0.00 0.02 0.00 0.00 0.01 0.01 0.00 0.00 0.00 0.00 0.00 0.00 0.00 0.00
0.29 0.32 0.22 0.05 0.05 0.04 0.02 0.01 0.01 0.03 0.02 0.01 0.00 0.00 0.00 0.00 0.00 0.00 0.00 0.00 0.00 0.00
0.02 0.20 0.08 0.01 0.08 0.09 0.06 0.02 0.01 0.03 0.02 0.02 0.00 0.00 0.00 0.00 0.00 0.00 0.00 0.00 0.00 0.00
0.01 0.01 0.04 0.00 0.05 0.03 0.03 0.02 0.01 0.01 0.02 0.02 0.01 0.00 0.00 0.00 0.00 0.00 0.00 0.00 0.00 0.00
0.02 0.04 0.03 0.01 0.00 0.00 0.01 0.00 0.01 0.00 0.01 0.01 0.01 0.00 0.00 0.00 0.00 0.00 0.00 0.00 0.00 0.00
0.03 0.03 0.01 0.01 0.01 0.01 0.02 0.01 0.01 0.02 0.01 0.00 0.00 0.00 0.00 0.00 0.00 0.00 0.00 0.00 0.00 0.00
0.06 0.07 0.01 0.02 0.04 0.02 0.03 0.02 0.01 0.01 0.00 0.00 0.01 0.00 0.00 0.00 0.00 0.00 0.00 0.00 0.00 0.00
0.09 0.08 0.05 0.06 0.11 0.06 0.03 0.01 0.01 0.00 0.00 0.00 0.00 0.01 0.01 0.01 0.00 0.00 0.00 0.00 0.00 0.00
0.06 0.06 0.05 0.05 0.07 0.03 0.01 0.00 0.00 0.00 0.00 0.00 0.00 0.01 0.01 0.01 0.00 0.00 0.00 0.00 0.00 0.00
MSLP
1007.11 1007.39 1007.58 1007.84 1008.98 1009.59 1009.69 1010.37 1011.35 1012.31 1012.99 1013.71 1014.32 1015.23 1015.88 1016.49 1017.05 1017.46 1017.91 1018.32 1019.05 1019.56
1006.56 1006.89 1006.79 1007.17 1008.19 1009.15 1009.58 1010.04 1011.02 1011.98 1012.83 1013.65 1014.25 1015.20 1015.93 1016.57 1017.08 1017.75 1018.11 1018.28 1019.17 1019.77
1005.79 1006.04 1006.26 1006.80 1007.59 1008.68 1009.48 1009.99 1010.89 1011.84 1012.75 1013.60 1014.26 1015.20 1015.85 1016.61 1017.28 1018.05 1018.64 1019.05 1019.75 1020.05
1005.24 1005.40 1006.01 1006.59 1007.37 1008.08 1009.10 1009.91 1010.84 1011.79 1012.73 1013.65 1014.43 1015.23 1015.93 1016.72 1017.61 1018.54 1019.12 1019.74 1020.03 1020.53
1004.90 1005.25 1005.96 1006.45 1007.45 1008.16 1009.03 1010.14 1010.96 1011.95 1012.83 1013.85 1014.82 1015.45 1016.12 1016.89 1017.69 1018.55 1019.58 1020.17 1020.44 1021.07
1006.06 1006.09 1006.52 1007.14 1007.76 1008.48 1009.47 1010.45 1011.48 1012.25 1013.19 1014.23 1015.33 1016.15 1016.80 1017.25 1018.27 1019.06 1019.68 1020.45 1020.83 1021.28
1006.73 1007.07 1007.28 1007.72 1008.51 1009.29 1010.13 1010.93 1011.94 1012.96 1013.97 1014.97 1015.51 1016.33 1017.26 1018.08 1018.87 1019.88 1020.13 1021.11 1021.50 1021.66
1007.58 1007.58 1008.25 1008.77 1009.41 1010.23 1010.95 1011.61 1012.39 1013.51 1014.66 1015.42 1015.96 1016.69 1017.70 1018.47 1019.30 1020.21 1021.11 1021.53 1021.58 1022.37
1008.13 1008.62 1009.08 1009.67 1010.23 1011.01 1011.74 1012.55 1013.14 1014.37 1015.23 1015.83 1016.70 1017.47 1018.06 1018.81 1019.64 1020.58 1020.77 1021.39 1022.36 1022.97
1008.97 1009.55 1010.02 1010.62 1011.16 1012.01 1012.66 1013.41 1014.22 1014.90 1015.74 1016.55 1017.40 1017.92 1018.76 1019.29 1020.30 1021.00 1021.22 1022.14 1022.82 1023.40
1009.88 1010.38 1010.89 1011.45 1012.14 1012.89 1013.68 1014.21 1014.93 1015.65 1016.55 1017.32 1018.16 1018.71 1019.27 1020.05 1020.98 1021.53 1021.87 1022.78 1023.37 1024.15
1010.96 1011.21 1011.86 1012.29 1013.12 1013.76 1014.28 1015.22 1015.79 1016.61 1017.37 1018.06 1018.98 1019.63 1020.05 1020.33 1021.40 1021.78 1022.53 1023.50 1024.01 1024.48
1011.89 1012.12 1012.69 1013.22 1013.93 1014.53 1015.08 1015.94 1016.75 1017.49 1018.00 1018.46 1019.20 1020.06 1020.57 1020.59 1021.02 1022.11 1023.19 1024.13 1024.47 1025.03
1012.86 1013.29 1013.80 1014.38 1014.98 1015.48 1016.20 1017.03 1017.78 1018.41 1019.02 1019.44 1019.86 1020.26 1020.78 1021.43 1022.12 1022.78 1023.69 1024.30 1024.94 1025.17
Thickness
5502 5506 5514 5520 5518 5519 5526 5528 5525 5524 5524 5525 5526 5526 5528 5530 5533 5534 5539 5542 5541 5543
5483 5489 5502 5510 5511 5510 5515 5520 5519 5518 5517 5516 5518 5516 5517 5520 5520 5522 5526 5530 5526 5529
5480 5482 5493 5500 5503 5502 5505 5510 5512 5512 5510 5509 5510 5509 5511 5511 5511 5510 5511 5514 5512 5518
5481 5484 5487 5493 5494 5496 5498 5502 5504 5504 5503 5502 5502 5502 5502 5502 5500 5498 5499 5499 5502 5503
5485 5484 5484 5487 5486 5488 5491 5493 5495 5495 5496 5494 5492 5493 5492 5493 5492 5489 5486 5485 5487 5487
5474 5475 5476 5477 5479 5481 5481 5484 5483 5486 5487 5485 5482 5481 5480 5483 5480 5478 5477 5474 5475 5477
5468 5465 5470 5471 5472 5470 5470 5473 5474 5474 5475 5473 5475 5473 5471 5469 5468 5464 5465 5460 5463 5468
5463 5464 5462 5463 5463 5460 5463 5464 5465 5465 5464 5465 5466 5465 5461 5460 5458 5455 5449 5451 5456 5453
5459 5457 5457 5456 5457 5456 5454 5454 5456 5454 5455 5456 5455 5453 5452 5451 5447 5444 5446 5443 5439 5441
5450 5448 5448 5448 5447 5445 5446 5445 5445 5446 5446 5445 5444 5445 5443 5441 5435 5431 5434 5431 5433 5432
5442 5442 5441 5440 5439 5438 5437 5438 5439 5439 5437 5437 5435 5435 5434 5430 5426 5423 5425 5421 5423 5421
5434 5435 5433 5435 5433 5432 5433 5431 5432 5430 5429 5430 5426 5423 5425 5426 5420 5420 5418 5415 5416 5418
5429 5430 5429 5428 5427 5428 5428 5425 5423 5422 5424 5425 5421 5417 5418 5422 5422 5418 5415 5411 5413 5409
5424 5423 5422 5421 5420 5420 5420 5418 5417 5416 5415 5415 5413 5412 5411 5410 5413 5411 5407 5407 5403 5402